Theta_e
281 279 277 281 286 282 280 280 281 282 284 283 281 283 286 290 286 286 287 287 286 288 293 295 294 295 294 294 294 294 294 294 293 291 290 289 289 290 291 293 294 296 295 295
278 276 281 282 283 282 281 279 280 282 283 282 280 281 284 287 287 287 289 289 289 290 290 291 292 293 293 293 294 294 294 294 294 294 290 291 291 290 292 293 294 295 295 295
276 277 280 281 279 279 277 280 278 279 280 280 278 280 281 284 285 287 288 290 290 290 290 290 289 291 293 293 294 294 294 294 294 294 292 291 292 291 291 292 293 294 295 295
278 279 280 277 277 279 277 278 279 278 276 272 276 273 279 283 286 284 286 287 288 288 289 289 289 289 292 293 295 295 295 294 294 293 293 291 291 290 291 291 292 293 295 294
277 277 278 278 278 279 276 278 278 278 275 273 272 272 277 280 283 285 287 286 285 286 287 288 289 290 292 294 294 295 295 294 294 294 294 293 291 290 289 290 292 292 293 293
278 278 279 279 279 279 280 279 279 276 274 267 273 273 280 278 281 282 285 286 287 287 286 286 287 288 290 292 293 294 294 293 294 293 294 293 292 289 289 289 291 291 291 291
277 277 278 280 277 279 278 276 269 265 263 269 272 272 281 282 284 283 285 286 287 287 287 285 284 285 287 289 291 292 292 292 293 293 293 293 291 291 291 291 292 290 289 289
274 272 277 279 278 277 276 276 272 266 267 270 274 271 277 282 284 285 285 286 286 286 286 286 285 285 286 288 289 291 291 291 292 293 293 293 292 292 292 292 291 291 291 290
272 274 277 279 278 279 276 275 276 272 267 269 274 277 281 284 285 284 285 284 285 283 285 285 286 285 286 287 288 290 291 292 292 292 293 292 291 291 291 290 291 291 290 290
280 274 276 277 277 277 277 279 273 271 264 264 272 273 276 282 283 283 284 284 284 283 283 284 285 285 286 287 288 290 291 292 292 292 293 292 292 292 291 291 291 290 289 289
281 280 274 276 274 275 275 274 273 274 273 269 267 273 279 281 281 281 284 284 282 283 284 284 284 284 284 285 286 287 288 289 290 291 291 291 291 291 290 290 290 290 289 288
281 281 274 274 276 276 275 275 275 272 269 271 273 274 281 281 282 282 284 285 284 284 284 284 284 284 283 284 284 285 286 287 289 290 289 289 289 289 289 289 289 288 288 288
282 277 271 274 275 274 271 275 277 277 276 271 271 276 282 281 282 283 283 283 284 285 284 284 284 284 284 284 285 285 285 286 287 287 288 287 288 288 288 289 288 288 288 287
288 280 274 275 277 275 271 273 277 277 272 275 275 278 280 280 281 282 282 282 283 284 284 284 285 285 284 284 284 284 286 286 286 287 287 287 288 288 288 288 288 287 287 286
285 280 280 281 281 277 278 273 276 276 278 275 279 277 278 280 281 281 281 283 282 282 283 283 283 284 285 286 285 284 284 286 286 286 286 288 287 287 287 287 287 287 286 286
282 279 280 279 282 281 279 276 276 278 279 279 279 278 280 283 282 280 279 280 279 280 281 281 282 282 283 284 285 286 286 284 286 286 287 287 286 286 287 287 286 286 286 285
277 278 277 275 280 281 276 280 279 278 281 280 277 282 283 281 279 276 277 278 277 278 278 278 279 279 281 282 283 282 283 285 284 285 286 286 286 286 286 286 285 285 285 284
275 274 275 274 269 269 279 283 285 284 285 282 281 277 277 278 277 277 278 277 276 277 277 277 277 277 280 281 280 281 282 283 283 284 284 285 285 286 286 285 285 285 285 284
279 276 273 271 271 275 278 274 272 273 273 274 275 274 275 277 279 277 278 278 277 277 277 277 277 278 278 278 278 279 281 282 282 282 283 283 284 285 285 285 285 285 284 283
279 278 274 273 270 268 270 275 278 276 268 274 275 274 274 277 276 274 278 277 276 277 276 276 275 277 277 276 276 279 279 279 279 280 281 284 283 285 285 286 285 285 285 284
266 270 267 268 268 268 273 276 277 270 268 275 276 275 275 273 275 277 277 276 276 275 275 275 273 274 275 275 275 276 277 275 278 279 280 281 283 285 286 285 285 283 284 283
267 266 265 268 266 263 276 275 271 274 277 276 274 273 272 273 273 273 273 274 274 273 273 273 271 272 273 272 272 272 273 274 275 277 279 280 281 283 283 284 283 282 282 281
265 268 266 269 268 275 276 276 277 277 277 274 273 271 271 270 270 271 271 272 272 272 271 271 269 270 269 269 269 269 271 272 272 274 278 279 279 281 281 283 281 282 282 282
269 272 269 268 270 273 273 272 273 273 272 271 271 270 269 268 269 269 271 271 270 270 269 268 268 267 266 267 268 268 270 269 270 271 274 279 279 279 278 280 281 282 282 282
272 273 267 268 272 272 270 269 269 270 270 269 269 268 267 267 267 268 268 268 267 267 267 266 266 266 265 266 265 266 268 267 268 270 272 277 280 279 279 279 280 282 283 285
267 262 268 267 265 267 267 267 266 267 266 266 265 265 266 265 265 266 265 265 265 264 264 264 264 264 264 264 265 266 266 266 266 268 270 272 276 279 279 279 281 285 286 286
Wind_Speed
3 5 11 16 16 2 2 4 7 3 1 4 9 16 19 20 8 13 16 15 14 20 19 15 17 17 15 15 16 15 15 13 11 6 6 4 5 4 2 4 7 7 6 6
2 14 11 5 6 8 7 5 13 7 3 5 8 22 19 20 17 18 23 21 21 16 13 15 16 17 19 19 20 19 20 15 13 10 4 4 4 3 3 4 5 6 6 6
10 6 6 10 6 6 5 13 5 9 5 5 5 23 11 8 10 17 18 23 16 19 16 14 15 19 18 21 23 20 20 19 17 13 8 4 5 4 3 3 3 5 7 7
10 6 6 6 7 11 15 9 7 5 2 6 1 15 7 7 19 9 13 16 17 15 12 13 17 17 21 21 18 20 20 19 16 17 14 9 7 6 4 5 4 5 7 7
9 9 7 9 9 9 7 4 7 4 4 3 3 3 5 2 10 9 13 10 9 10 11 14 16 18 19 18 19 19 19 18 17 18 17 13 7 5 4 4 8 6 5 6
4 1 5 7 3 3 9 7 7 5 2 4 10 8 28 8 8 5 4 4 4 6 6 7 6 8 11 12 15 16 18 17 17 18 16 17 14 9 6 5 7 6 4 4
2 5 3 4 7 3 2 7 1 5 3 10 2 5 18 11 13 9 10 10 7 5 4 5 7 7 7 12 14 14 17 17 17 18 17 17 15 14 13 10 8 8 5 4
10 7 13 8 8 11 9 9 9 10 6 5 3 13 10 10 11 11 7 7 8 6 2 3 5 5 7 9 11 14 14 15 16 18 18 15 14 10 7 9 8 8 8 7
8 7 1 3 2 6 8 10 5 7 2 4 7 9 10 15 15 9 8 6 7 3 1 2 2 5 6 8 11 15 15 13 14 16 13 12 10 10 10 9 8 7 6 6
6 1 3 2 1 1 5 4 4 3 4 5 7 7 9 11 11 4 7 6 5 4 1 1 3 4 5 6 7 9 11 14 14 14 12 12 13 11 10 9 10 10 7 7
4 5 1 2 8 10 5 4 0 3 6 8 2 8 9 10 6 5 7 5 3 4 3 1 0 2 4 3 6 7 8 9 11 12 11 11 11 11 10 11 11 11 9 10
9 4 7 10 1 1 1 4 7 7 7 4 3 11 1 4 6 4 7 8 7 5 2 1 2 1 3 5 5 7 7 9 10 10 10 10 10 11 12 11 11 10 12 10
8 5 3 2 2 2 5 7 4 1 2 8 8 10 2 4 7 7 8 10 9 9 11 10 9 7 5 3 3 5 6 6 6 7 9 8 9 11 11 11 11 11 10 10
8 7 9 15 8 7 8 9 15 7 2 7 9 9 7 9 8 8 9 11 13 15 15 12 12 9 7 4 3 4 4 5 6 7 8 10 12 13 12 11 11 11 11 11
6 7 10 16 13 4 7 8 17 17 23 9 23 11 2 3 7 9 11 13 16 17 19 18 16 15 15 15 10 5 3 4 4 6 7 11 8 8 8 9 10 10 11 10
7 8 9 7 14 13 15 4 14 23 23 18 22 21 3 6 8 13 13 12 12 12 13 15 17 18 16 15 15 15 12 5 6 7 10 6 7 8 10 10 11 11 11 10
7 5 5 14 7 13 17 22 18 9 7 14 15 18 6 8 11 12 12 13 13 13 12 13 14 15 15 15 15 14 14 13 6 7 8 7 9 11 11 10 10 12 13 11
8 11 4 6 1 21 1 6 19 24 20 7 9 11 8 6 11 10 11 12 13 13 14 13 12 13 14 14 14 13 11 10 8 7 7 7 7 9 9 11 13 12 11 14
15 6 5 5 5 8 0 8 8 1 4 10 5 9 7 3 8 11 11 11 10 11 11 11 12 11 12 14 16 15 14 13 12 10 8 6 7 8 10 13 15 13 12 11
5 12 11 6 6 8 5 14 9 7 4 5 6 8 10 4 6 3 9 9 10 10 10 11 13 10 11 14 14 13 15 15 15 15 14 12 6 9 11 13 12 10 11 11
6 4 3 8 7 6 12 11 7 3 5 2 4 6 8 7 4 6 9 8 8 9 11 11 12 12 13 14 15 14 13 15 17 18 16 13 10 11 12 9 8 9 10 9
4 5 2 2 3 4 12 4 7 3 0 4 6 7 5 5 7 8 9 11 12 11 11 12 12 12 12 12 12 12 13 15 16 17 15 14 9 6 4 9 7 9 10 10
5 4 2 2 2 2 4 4 4 3 2 4 4 6 7 6 6 9 10 9 8 10 12 11 12 11 8 10 12 14 14 15 16 16 16 14 12 4 3 6 7 7 9 9
5 4 4 2 4 5 4 6 6 6 6 5 6 6 6 7 8 9 9 10 11 11 10 11 13 13 13 12 12 10 14 16 15 15 16 13 11 6 3 1 4 6 7 7
7 4 2 3 2 6 6 5 5 5 7 8 8 7 8 9 11 10 10 9 9 11 11 11 12 13 15 15 14 11 12 14 15 14 13 13 9 7 4 2 3 5 6 9
4 3 5 7 2 3 4 4 7 7 7 8 9 10 9 10 10 11 10 10 11 11 12 12 12 12 13 14 16 13 11 12 14 14 10 9 10 8 5 3 4 7 6 10
Wind_Direction
210 173 200 201 211 69 137 217 247 249 147 238 238 260 262 271 241 258 257 251 240 236 232 217 204 199 193 188 183 182 179 181 167 163 161 152 177 166 191 183 169 171 165 162
104 237 220 160 190 228 251 277 263 279 226 193 282 272 264 262 251 234 246 250 244 243 224 209 195 190 194 189 189 185 187 177 182 178 153 149 146 165 153 168 171 170 170 164
188 211 151 171 184 175 221 228 232 232 328 234 329 282 243 269 248 251 252 253 253 238 232 206 194 196 189 194 191 188 185 179 180 172 143 94 92 81 123 170 170 181 172 170
236 214 169 161 200 174 250 201 194 226 121 252 41 286 239 264 267 218 243 243 245 234 228 207 201 197 197 196 190 188 184 178 176 164 170 167 171 160 190 167 148 168 175 170
239 169 174 200 208 157 228 126 168 155 177 350 200 248 256 83 274 247 243 252 243 236 223 215 201 201 197 188 188 184 180 179 176 176 175 175 171 151 142 136 152 166 169 172
248 357 181 193 83 146 144 87 56 42 97 281 179 162 281 208 240 286 266 321 308 317 260 238 216 187 190 187 184 180 175 177 173 177 177 182 179 158 147 150 166 166 160 169
128 214 182 149 97 56 151 113 316 338 3 236 211 175 250 306 269 221 257 283 271 322 280 259 213 188 172 181 178 177 178 178 174 177 180 183 179 175 171 168 168 162 155 184
183 269 167 176 192 168 195 172 167 198 201 250 134 237 249 231 278 249 259 264 306 317 294 255 234 206 175 169 170 176 178 177 177 181 185 183 181 179 174 168 166 172 185 183
159 263 48 16 135 141 187 217 154 103 53 40 227 280 282 261 278 293 253 255 280 330 352 335 164 189 172 169 180 179 178 181 181 181 178 180 173 166 175 165 163 172 168 168
202 336 18 7 270 11 181 182 107 351 161 238 263 267 236 295 268 348 346 273 287 306 264 139 138 186 190 176 168 176 180 183 179 175 178 180 178 174 170 163 174 179 171 162
151 151 68 76 214 179 157 199 140 130 168 181 251 259 221 241 295 305 333 330 278 275 343 1 281 156 176 159 165 170 162 162 167 176 175 168 172 171 167 179 180 179 167 168
217 181 176 194 160 339 237 241 181 145 225 245 144 258 262 244 349 141 44 28 11 20 11 12 38 67 155 175 177 181 173 174 178 174 169 173 166 172 182 185 179 170 176 177
186 233 132 335 348 19 209 191 217 120 89 206 153 261 349 46 48 36 61 11 9 20 18 13 23 357 354 309 208 195 193 191 163 156 163 165 173 180 189 188 180 176 170 173
172 204 205 216 215 132 184 195 201 174 158 220 224 239 9 47 40 16 19 9 18 23 21 20 15 358 21 5 321 290 236 189 175 176 178 186 190 191 189 183 178 175 174 170
226 246 220 235 244 170 194 169 192 204 224 210 249 251 238 19 43 27 38 25 27 18 9 3 1 6 7 7 357 334 275 222 203 194 196 211 193 181 170 176 178 174 176 180
305 246 213 228 242 239 236 187 194 201 217 237 259 266 229 267 76 36 26 19 27 20 9 1 356 357 1 359 352 345 341 282 194 204 221 201 178 178 189 184 182 179 180 174
285 310 237 245 226 243 234 220 204 207 207 201 224 259 8 51 60 41 29 29 16 8 8 6 358 348 347 351 351 346 331 326 246 227 236 215 193 192 192 178 175 190 187 174
258 293 305 309 23 244 247 210 221 227 233 264 289 33 64 77 95 64 43 29 20 9 3 359 357 347 347 349 348 336 333 327 306 267 253 230 202 208 187 178 190 193 183 184
224 236 262 259 278 329 112 18 6 248 87 24 32 35 10 268 144 61 35 29 18 2 356 355 349 346 349 353 344 341 351 356 355 336 291 254 220 208 192 195 197 191 182 185
296 233 248 226 229 220 47 330 325 299 95 10 50 48 7 17 146 61 13 8 7 359 354 352 351 348 354 356 349 354 356 356 352 340 322 301 230 219 212 212 201 189 193 192
320 331 316 330 312 55 324 329 318 278 55 341 23 42 34 42 22 343 354 6 14 357 349 354 355 355 356 352 351 356 355 355 337 330 320 310 266 227 219 210 190 181 181 169
282 303 292 301 261 231 331 21 42 150 116 13 33 39 26 6 341 349 351 354 355 355 353 358 349 350 354 351 349 348 352 340 333 329 326 321 299 262 218 194 183 176 174 174
275 198 227 210 295 204 308 137 89 35 81 50 19 9 1 347 343 338 340 353 353 353 350 355 343 336 343 352 354 344 342 341 333 330 330 327 316 277 222 189 178 178 180 179
288 212 209 79 253 195 115 67 60 53 69 48 33 351 356 340 331 334 337 344 345 350 346 348 340 343 338 346 348 337 335 337 331 329 328 332 332 314 303 275 182 182 186 186
267 285 272 258 89 105 94 67 28 28 31 16 1 358 351 342 333 336 333 332 337 332 337 342 343 339 332 332 329 335 343 340 328 324 324 329 332 318 290 254 207 212 210 203
31 275 257 269 30 322 55 59 21 26 9 353 344 337 343 338 323 326 319 323 323 329 331 327 330 330 324 324 317 324 347 343 327 318 322 322 321 323 299 268 274 253 232 214